Location: Bratislava
(48.1500°N, 17.1170°E)
Time: 04:32:24
(UTC+01:00)

Tiangong 2 - Visible Passes

Search period start: 16 December 2017 00:00
Search period end: 26 December 2017 00:00
Orbit: 386 x 390 km, 42.8° (Epoch: 15 December)

Date Brightness Start Highest point End Pass type
(mag) Time Alt. Az. Time Alt. Az. Time Alt. Az.
22 Dec 4.0 18:28:50 10° SSW 18:29:05 11° S 18:29:05 11° S visible
23 Dec 3.7 17:31:56 10° SSE 17:32:31 10° SSE 17:33:05 10° SE visible
24 Dec 3.1 18:07:52 10° SSW 18:10:00 20° S 18:10:00 20° S visible
25 Dec 3.4 17:10:02 10° SSW 17:12:01 15° SSE 17:14:00 10° ESE visible
25 Dec 3.8 18:45:28 10° WSW 18:46:31 17° SW 18:46:31 17° SW visible
